星链-32187 (STARLINK-32187)

导读

STARLINK-32187是美国太空探索技术公司(SpaceX)于2024年8月2日发射的星链(Starlink)低轨通信卫星,隶属于星链全球卫星互联网星座。卫星运行于近地轨道,依托星链先进的通信技术,为全球尤其是偏远地区提供高速低延迟宽带互联网接入,助力消除数字鸿沟,目前已在轨正常运行,是SpaceX规模化部署星链网络的组成部分。

Basic Information
目录编号:
60337
目录名称:
STARLINK-32187
国际标识:
2024-136J
轨道中心:
EARTH
卫星名称:
星链-32187 (STARLINK-32187)
卫星全名:
星链-32187 (STARLINK-32187)
卫星状态:
已陨落 最后检测时间 2024-09-25
发射日期:
2024-08-02 UTC
国别 :
美国 (US)
星等 :
--
Orbit Information
数据来源 国际轨道数据
星历时间: 2024-09-25T20:17:50+0800
轨道信息已过期627天
半长轴: 6569.306km
偏心率: 0.0010681
轨道倾角: 53.136°
近地点辐角 345.301°
升交点赤经 9.166°
平近点角 93.160°
近地点: 184.154km
远地点: 198.188km
周期: 88.316分钟
每日圈数: 16.305104
Detailed Information
卫星平台:
Starlink v2.0 mini
运营商:
太空探索技术公司
运营商所在国:
美国
制造商(研发单位):
太空探索技术公司
制造商所在国:
美国
使用方式:
暂无
Satellite Introduction
星链(Starlink)计划是由太空探索技术公司(SpaceX)提出的一个巨型低轨卫星互联网星座项目,计划在2019年至2024年间在太空搭建由约1.2万颗卫星组成的“星链”网络,其中1584颗将部署在地球上空550千米处的近地轨道,并从2020年开始工作。该卫星仍在工作。